Regional Weather Roundup
Issued by NWS

Home | Current Version | Previous Version | Graphics & Text | Print | Product List | Glossary On
Versions: 1 2 3 4 5 6 7 8 9 10 11 12 13 14 15 16 17 18 19 20 21 22 23 24 25 26 27 28 29 30 31 32 33 34 35 36 37 38 39 40 41 42 43 44 45 46 47 48 49 50
000
ASUS43 KLOT 290703
RWRIL

ILLINOIS REGIONAL WEATHER ROUNDUP
NATIONAL WEATHER SERVICE CHICAGO/ROMEOVILLE IL
200 AM CDT THU JUN 29 2017

NOTE: "FAIR" INDICATES FEW OR NO CLOUDS BELOW 12,000 FEET WITH NO
SIGNIFICANT WEATHER AND/OR OBSTRUCTIONS TO VISIBILITY.

* THESE STATIONS ARE NOT UNDER NWS QUALITY CONTROL. THEY ALSO MAY NOT
  REPORT WEATHER SUCH AS PRECIPITATION OR FOG.

ILZ001-002-007-009-015-016-024-290800-
NORTHWEST ILLINOIS

CITY           SKY/WX    TMP DP  RH WIND       PRES   REMARKS
MOLINE         MOCLDY    75  58  55 SW10      29.73R
STERLING*      CLOUDY    74  64  71 SW7       29.73R
SAVANNA*       CLOUDY    69  66  92 SE3       29.71F
$$

ILZ003-004-008-010-011-017-018-290800-
NORTH CENTRAL ILLINOIS

CITY           SKY/WX    TMP DP  RH WIND       PRES   REMARKS
ROCKFORD       CLOUDY    70  65  84 S8        29.74F
FREEPORT*      MOCLDY    67  65  92 CALM      29.74F
ROCHELLE*      CLOUDY    70  65  82 S6        29.76S
DE KALB*       CLOUDY    70  64  80 S12       29.78R
PERU*          CLOUDY    75  63  66 SW24      29.74S
$$

ILZ005-006-012>014-019>023-290800-
NORTHEAST ILLINOIS

CITY           SKY/WX    TMP DP  RH WIND       PRES   REMARKS
CHICAGO-OHARE  MOCLDY    67  64  90 S8        29.77F
CHICAGO-MIDWAY CLOUDY    70  64  81 SE10      29.79F
AURORA         CLOUDY    74  64  71 S10       29.78R
LANSING*       MOCLDY    74  62  65 SW9       29.82R
JOLIET*        MOCLDY    77  65  67 SW7G17    29.79S
WAUKEGAN       MOCLDY    65  64  97 S10       29.77S
DUPAGE AIRPORT MOCLDY    71  65  81 S9        29.77S
WHEELING       PTCLDY    66  66 100 SE6       29.79F
MORRIS*        CLOUDY    76  64  65 SW15      29.76R
ROMEOVILLE*    MOCLDY    74  62  66 SW12G17   29.79R
$$

LMZ740>746-290800-
SOUTHERN LAKE MICHIGAN

STATION/POSITION SKY/WX   TEMP    WIND        PRES    VSBY  WAVE
                          AIR SEA DIR/SP/G                  HT/PER
                          (F)     (DEG/KT/KT) (MB)    (MI)  (FT/S)
SOUTHERN BUOY              62 60  120/ 14/ 17 1008.0          2/ 5
WILMETTE HARBOR            63 61  130/ 12/ 14   N/A           1/ 3
HARRISON CRIB              66     130/ 21/ 22   N/A
BURNHAM HARBOR             65                   N/A
CALUMET HARBOR             67      80/  8/ 12 1009.4F
BURNS HARBOR               67      60/ 13/ 15 1011.2S
MICHIGAN CITY              66      50/ 11/ 12   N/A
MICHIGAN CITY 6N           66 65   90/ 12/ 16   N/A           1/ 2
ST. JOSEPH                 66 67  100/  6/ 10 1010.9F         2/ 4
$$

ILZ025>027-034>036-040-047-049-050-058-095>099-290800-
WEST-CENTRAL ILLINOIS

CITY           SKY/WX    TMP DP  RH WIND       PRES   REMARKS
QUINCY         TSTM      66  63  90 S13       29.90F
GALESBURG*     MOCLDY    68  60  76 S15G26    29.75R
MACOMB*        CLOUDY    65  63  91 S24G33    29.79F
JACKSONVILLE*  CLOUDY    72  59  64 W8        29.93S
PITTSFIELD*    CLOUDY    71  62  72 CALM      29.96S
$$

ILZ028>032-037-038-041>044-048-051>054-059>061-290800-
CENTRAL ILLINOIS

CITY           SKY/WX    TMP DP  RH WIND       PRES   REMARKS
PONTIAC        CLOUDY    79  66  64 S38G61    29.72F HX  81
BLOOMINGTON    MOCLDY    75  65  70 SW22G31   29.85F
DECATUR        CLOUDY    75  64  68 SW17G23   29.91S
PEORIA         LGT RAIN  70  67  90 SW20G26   29.83F
LACON*         CLOUDY    75  62  63 SW33G49   29.70F
LINCOLN*       CLOUDY    77  67  69 SW7G17    29.88S
SPRINGFIELD    CLOUDY    77  66  68 W10       29.92R
TAYLORVILLE    CLOUDY    74  65  71 S15       29.92F
$$

ILZ033-039-045-046-055>057-062-063-290800-
EAST-CENTRAL ILLINOIS

CITY           SKY/WX    TMP DP  RH WIND       PRES   REMARKS
CHAMPAIGN      MOCLDY    74  63  68 S15G24    29.91S
RANTOUL*       MOCLDY    76  65  69 SW16      29.88S
MATTOON        CLOUDY    73  66  78 SW8       29.93S
PARIS*         CLOUDY    73  64  75 S12G18    29.94S THUNDER
$$

ILZ079-100>102-290800-
SOUTHWEST ILLINOIS

CITY           SKY/WX    TMP DP  RH WIND       PRES   REMARKS
ALTON          MOCLDY    73  67  81 S6        29.95S
BELLEVILLE     MOCLDY    70  65  83 CALM      29.96R
CAHOKIA*       CLOUDY    73  65  75 S5        29.94R
SPARTA*        PTCLDY    73  64  75 S6        29.96S
$$

ILZ064>066-069>071-074>076-080>082-084>086-088>090-092>094-290800-
SOUTH-CENTRAL ILLINOIS

CITY           SKY/WX    TMP DP  RH WIND       PRES   REMARKS
CARBONDALE     PTCLDY    71  66  84 S6        29.96S
CAIRO*         CLEAR     74  66  75 S6        29.97F
EFFINGHAM*     CLOUDY    73  65  78 S8        29.96S
MARION         PTCLDY    72  68  88 S3        29.98S
MT. VERNON     PTCLDY    70  65  84 S6        29.96F
CENTRALIA*     PTCLDY    73  66  78 S10       29.95S
SALEM*         PTCLDY    73  64  73 S7        29.95S
METROPOLIS*    CLOUDY    73  66  79 CALM      29.99S
$$

ILZ067-068-072-073-078-083-087-091-290800-
SOUTHEAST ILLINOIS

CITY           SKY/WX    TMP DP  RH WIND       PRES   REMARKS
LAWRENCEVILLE  CLOUDY    69  64  84 S9        29.97F
FLORA*         CLOUDY    73  66  77 S8        29.96S
FAIRFIELD*     PTCLDY    71  66  84 S6        29.95F
HARRISBURG*    PTCLDY    72  65  81 S3        29.98S
ROBINSON*      CLOUDY    69  63  82 S6        29.97S
CARMI*         CLOUDY    69  65  88 S6        29.98R
$$

ABBREVIATIONS USED IN REMARKS
   TC - TEMPERATURE IN CELSIUS
  WCI - WIND CHILL INDEX
   HX - HEAT INDEX
  VSB - VISIBILITY
$$





USA.gov is the U.S. government's official web portal to all federal, state and local government web resources and services.